Location: Baix
(44.7118°N, 4.7648°E)
Time: 17:45:50
(UTC+00:00)

Meteor 1-24 Rocket - Pass Details

Date: 07 August 2020
Orbit: 789 x 928 km, 81.3° (Epoch: 23 September)

Event Time Altitude Azimuth Distance (km) Brightness Sun altitude
Rises 01:57:48 0° 349° (N) 3,401 7.5 -22.1°
Reaches altitude 10° 02:00:15 10° 350° (N) 2,442 6.7 -21.8°
Maximum altitude 02:05:46 87° 81° (E) 817 3.6 -21.3°
Enters shadow 02:08:29 31° 168° (SSE) 1,389 4.5 -21.0°
